This demonstration page uses our WeatherBlox Daily Observations layout. Learn more.

Left ArrowRight Arrow

47.50024, -111.30081

Hourly Observations for July 31, 2020

Temp ( °F °C ) Dew Point ( °F °C ) Humidity (%) Winds ( mph kmh ) Pressure ( in mb ) Visibility ( mi km ) Precip ( " mm )
12:53 am 00:53 Clear 64 17.8 50 10 60 60 SSW 6 9 30.07 1018 10 16 0.00 0.00
1:53 am 01:53 Clear 62 16.7 52 11.1 70 70 WSW 5 7 30.07 1018 10 16 0.00 0.00
2:53 am 02:53 Clear 59 15 52 11.1 78 78 SW 8 13 30.08 1019 10 16 0.00 0.00
3:53 am 03:53 Clear 58 14.4 52 11.1 81 81 SW 9 15 30.08 1019 10 16 0.00 0.00
4:53 am 04:53 Clear 56 13.3 51 10.6 84 84 SW 7 11 30.09 1019 10 16 0.00 0.00
5:53 am 05:53 Clear 56 13.3 52 11.1 87 87 WSW 7 11 30.10 1019 10 16 0.00 0.00
6:53 am 06:53 Sunny 58 14.4 52 11.1 81 81 SW 8 13 30.11 1020 10 16 0.00 0.00
7:53 am 07:53 Sunny 64 17.8 54 12.2 70 70 SW 6 9 30.11 1020 10 16 0.00 0.00
8:53 am 08:53 Sunny 68 20 56 13.3 65 65 W 6 9 30.12 1020 10 16 0.00 0.00
9:53 am 09:53 Mostly Sunny 72 22.2 57 13.9 59 59 VRB 5 7 30.12 1020 10 16 0.00 0.00
10:53 am 10:53 Sunny 76 24.4 57 13.9 52 52 Calm 30.11 1020 10 16 0.00 0.00
11:53 am 11:53 Sunny 81 27.2 54 12.2 39 39 VRB 3 6 30.09 1019 10 16 0.00 0.00
12:53 pm 12:53 Sunny 84 28.9 55 12.8 37 37 E 7 11 30.09 1019 10 16 0.00 0.00
1:53 pm 13:53 Sunny 87 30.6 54 12.2 32 32 E 10 17 30.07 1018 10 16 0.00 0.00
2:53 pm 14:53 Sunny 89 31.7 53 11.7 29 29 ENE 10 17 30.06 1018 10 16 0.00 0.00
3:53 pm 15:53 Sunny 91 32.8 51 10.6 26 26 NNE 8 13 30.04 1017 10 16 0.00 0.00
4:53 pm 16:53 Sunny 92 33.3 50 10 24 24 ENE 9 15 30.02 1017 10 16 0.00 0.00
5:53 pm 17:53 Sunny 89 31.7 50 10 26 26 ENE 6 9 30.02 1017 10 16 0.00 0.00
6:53 pm 18:53 Sunny 87 30.6 49 9.4 27 27 ENE 12 19 29.99 1016 10 16 0.00 0.00
7:53 pm 19:53 Sunny 86 30 50 10 29 29 ENE 12 19 29.98 1015 10 16 0.00 0.00
8:53 pm 20:53 Sunny 82 27.8 49 9.4 32 32 E 12 19 29.99 1016 10 16 0.00 0.00
9:53 pm 21:53 Clear 78 25.6 50 10 37 37 E 12 19 30.01 1016 10 16 0.00 0.00
10:53 pm 22:53 Clear 77 25 50 10 39 39 ESE 17 28 30.00 1016 10 16 0.00 0.00
11:53 pm 23:53 Clear 72 22.2 50 10 46 46 E 7 11 30.01 1016 10 16 0.00 0.00

Powered by AerisWeather